Location: Newark
(42.7133°N, 87.7910°W)
Time: 18:30:19
(UTC+00:00)

Vanguard 1 Rocket - Pass Details

Date: 17 September 2019
Orbit: 650 x 4226 km, 34.3° (Epoch: 20 October)

Event Time Altitude Azimuth Distance (km) Brightness Sun altitude
Rises 00:22:56 0° 234° (SW) 8,087 13.0 -5.1°
Reaches altitude 10° 00:29:21 10° 230° (SW) 6,672 12.4 -6.3°
Maximum altitude 00:47:19 47° 165° (SSE) 2,929 9.8 -9.5°
Enters shadow 00:56:21 13° 98° (E) 3,591 9.8 -11.1°
